Погода в Новомихайловке

Россия / Новосибирская область     55°04′44″N   76°11′07″E
темп.,
°C
ветер,
м/с
пор.,
м/с
влажн.,
%
обл.,
%
осадки,
мм/ч
давл.,
гПа
погр.,
м
25 октября, пн
пн2501:00+9ююз51080100 0.0 1016311
04:00+9ююз71572100 0.0 1014552
07:00+8юз81655100 0.0 1013527
10:00+8юз81545100 0.0 1012565
13:00+10зюз71344100 0.0 1013689
16:00+11зюз6104892 0.0 10141056
19:00+8юз3660100 0.0 1015119
22:00+7юз3366100 0.0 101549
26 октября, вт
вт2601:00+7ю3871100 0.1 1014260
04:00+6ююв4886100 2.5 1011343
07:00+7ююв4965100 2.9 1007268
10:00+7ююз41067100 0.3 1004352
13:00+7зюз81486100 2.8 10031129
16:00+4з81378100 0.6 10061129
19:00+4зсз9147221 0.6 10101448
22:00+1зсз813635 0.0 1015994
27 октября, ср
ср2701:00−1зсз611695 0.0 1019678
04:00−2з510715 0.0 1022510
07:00−2зюз497581 0.0 1024359
10:00−2юз497359 0.0 1025405
13:00+1зюз695266 0.0 1025897
16:00+3зюз6104679 0.0 10241358
19:000зюз386259 0.0 1024164
22:00−1юз496471 0.0 1025199
28 октября, чт
чт2801:00−1юз4862100 0.0 1025182
04:00−1юз366393 0.0 1024127
07:00−2ююз356474 0.0 1024102
10:00−1ююз4958100 0.0 1023279
13:00+3ююз6104264 0.0 1022540
16:00+4ююз71239100 0.0 1020788
19:00+3ююз71441100 0.0 1018572
22:00+4ююз81541100 0.0 1016592
29 октября, пт
пт2901:00+4ююз71542100 0.0 1014564
04:00+3юз81544100 0.0 1012579
07:00+3юз8154881 0.0 1012762
10:00+3юз815525 0.0 1012673
13:00+4юз81355100 0.0 10131268
16:00+5юз81257100 0.0 10131071
19:00+5юз71362100 0.0 1014751
22:00+4юз61362100 0.0 1014744